TimeCDT,TemperatureF,Dew PointF,Humidity,Sea Level PressureIn,VisibilityMPH,Wind Direction,Wind SpeedMPH,Gust SpeedMPH,PrecipitationIn,Events,Conditions,WindDirDegrees,DateUTC
12:15 AM,33.8,30.2,87,30.25,10.0,ESE,9.2,-,N/A,,Overcast,120,2013-03-28 05:15:00
12:35 AM,33.8,30.2,87,30.25,10.0,ESE,11.5,-,N/A,,Overcast,120,2013-03-28 05:35:00
12:55 AM,33.8,30.2,87,30.25,10.0,ESE,10.4,-,N/A,,Overcast,120,2013-03-28 05:55:00
1:15 AM,33.8,30.2,87,30.25,10.0,SE,10.4,-,N/A,,Overcast,130,2013-03-28 06:15:00
1:35 AM,32.0,30.2,93,30.25,10.0,SE,9.2,-,N/A,,Overcast,130,2013-03-28 06:35:00
1:55 AM,32.0,30.2,93,30.25,10.0,ESE,10.4,-,N/A,,Overcast,120,2013-03-28 06:55:00
2:15 AM,32.0,30.2,93,30.25,10.0,ESE,8.1,-,N/A,,Mostly Cloudy,120,2013-03-28 07:15:00
2:35 AM,32.0,30.2,93,30.25,10.0,East,6.9,-,N/A,,Scattered Clouds,100,2013-03-28 07:35:00
2:55 AM,30.2,30.2,100,30.25,10.0,ESE,6.9,-,N/A,,Partly Cloudy,120,2013-03-28 07:55:00
3:15 AM,32.0,30.2,93,30.24,9.0,ESE,8.1,-,N/A,,Clear,110,2013-03-28 08:15:00
3:35 AM,30.2,30.2,100,30.24,10.0,ESE,6.9,-,N/A,,Clear,110,2013-03-28 08:35:00
3:55 AM,30.2,30.2,100,30.24,9.0,ESE,5.8,-,N/A,,Clear,120,2013-03-28 08:55:00
4:15 AM,30.2,30.2,100,30.24,8.0,ESE,6.9,-,N/A,,Clear,120,2013-03-28 09:15:00
4:35 AM,30.2,30.2,100,30.23,8.0,ESE,8.1,-,N/A,,Clear,110,2013-03-28 09:35:00
4:55 AM,30.2,30.2,100,30.23,9.0,ESE,6.9,-,N/A,,Clear,110,2013-03-28 09:55:00
5:15 AM,30.2,28.4,93,30.23,8.0,ESE,8.1,-,N/A,,Clear,120,2013-03-28 10:15:00
5:35 AM,30.2,28.4,93,30.23,8.0,SE,8.1,-,N/A,,Clear,130,2013-03-28 10:35:00
5:55 AM,30.2,28.4,93,30.23,7.0,ESE,8.1,-,N/A,,Clear,120,2013-03-28 10:55:00
6:15 AM,30.2,28.4,93,30.24,7.0,ESE,6.9,-,N/A,,Clear,120,2013-03-28 11:15:00
6:35 AM,30.2,28.4,93,30.24,6.0,SE,6.9,-,N/A,,Clear,130,2013-03-28 11:35:00
6:55 AM,28.4,28.4,100,30.24,6.0,ESE,5.8,-,N/A,,Clear,120,2013-03-28 11:55:00
7:15 AM,30.2,28.4,93,30.23,5.0,ESE,9.2,-,N/A,,Clear,120,2013-03-28 12:15:00
7:35 AM,30.2,28.4,93,30.24,5.0,ESE,9.2,-,N/A,,Clear,120,2013-03-28 12:35:00
7:55 AM,30.2,28.4,93,30.24,5.0,ESE,8.1,-,N/A,,Clear,120,2013-03-28 12:55:00
8:15 AM,30.2,30.2,100,30.24,5.0,SE,8.1,-,N/A,,Clear,130,2013-03-28 13:15:00
8:35 AM,30.2,30.2,100,30.25,6.0,SE,8.1,-,N/A,,Clear,130,2013-03-28 13:35:00
8:55 AM,32.0,30.2,93,30.25,6.0,SE,6.9,-,N/A,,Clear,130,2013-03-28 13:55:00
9:15 AM,32.0,30.2,93,30.26,6.0,SE,5.8,-,N/A,,Clear,130,2013-03-28 14:15:00
9:35 AM,33.8,30.2,87,30.26,7.0,SE,6.9,-,N/A,,Clear,140,2013-03-28 14:35:00
9:55 AM,33.8,32.0,93,30.26,7.0,SE,6.9,-,N/A,,Clear,130,2013-03-28 14:55:00
10:15 AM,35.6,32.0,87,30.26,7.0,SE,8.1,-,N/A,,Clear,130,2013-03-28 15:15:00
10:35 AM,35.6,32.0,87,30.26,7.0,SE,9.2,-,N/A,,Clear,140,2013-03-28 15:35:00
10:55 AM,37.4,33.8,87,30.25,7.0,SE,10.4,-,N/A,,Clear,140,2013-03-28 15:55:00
11:15 AM,39.2,33.8,81,30.25,7.0,SE,10.4,-,N/A,,Clear,130,2013-03-28 16:15:00
11:35 AM,39.2,35.6,87,30.25,9.0,SSE,10.4,-,N/A,,Clear,150,2013-03-28 16:35:00
11:55 AM,41.0,35.6,81,30.26,9.0,SSE,11.5,-,N/A,,Clear,150,2013-03-28 16:55:00
12:15 PM,42.8,37.4,81,30.25,9.0,SE,9.2,-,N/A,,Clear,140,2013-03-28 17:15:00
12:35 PM,42.8,35.6,76,30.24,10.0,SE,10.4,-,N/A,,Clear,140,2013-03-28 17:35:00
12:55 PM,44.6,37.4,76,30.23,9.0,SSE,10.4,-,N/A,,Clear,150,2013-03-28 17:55:00
1:15 PM,44.6,37.4,76,30.23,10.0,SSE,8.1,-,N/A,,Clear,150,2013-03-28 18:15:00
1:35 PM,44.6,37.4,76,30.23,10.0,SSE,10.4,-,N/A,,Clear,150,2013-03-28 18:35:00
1:55 PM,46.4,37.4,71,30.22,10.0,SE,9.2,-,N/A,,Clear,140,2013-03-28 18:55:00
2:15 PM,48.2,37.4,66,30.22,10.0,SSE,9.2,-,N/A,,Clear,160,2013-03-28 19:15:00
2:35 PM,48.2,35.6,62,30.21,10.0,SSE,8.1,-,N/A,,Clear,150,2013-03-28 19:35:00
2:55 PM,48.2,35.6,62,30.21,10.0,SSE,8.1,-,N/A,,Clear,160,2013-03-28 19:55:00
3:15 PM,48.2,37.4,66,30.20,10.0,SSE,11.5,-,N/A,,Clear,150,2013-03-28 20:15:00
3:35 PM,48.2,37.4,66,30.19,10.0,SE,10.4,-,N/A,,Clear,140,2013-03-28 20:35:00
3:55 PM,48.2,39.2,71,30.19,10.0,SSE,6.9,-,N/A,,Clear,150,2013-03-28 20:55:00
4:15 PM,48.2,37.4,66,30.19,10.0,SE,8.1,-,N/A,,Clear,140,2013-03-28 21:15:00
4:35 PM,50.0,37.4,62,30.19,10.0,SSE,10.4,-,N/A,,Clear,150,2013-03-28 21:35:00
4:55 PM,50.0,37.4,62,30.19,10.0,SSE,8.1,-,N/A,,Partly Cloudy,150,2013-03-28 21:55:00
5:15 PM,48.2,37.4,66,30.19,10.0,SE,8.1,-,N/A,,Scattered Clouds,140,2013-03-28 22:15:00
5:35 PM,48.2,39.2,71,30.18,10.0,ESE,5.8,-,N/A,,Partly Cloudy,120,2013-03-28 22:35:00
5:55 PM,46.4,39.2,76,30.18,10.0,ESE,5.8,-,N/A,,Clear,120,2013-03-28 22:55:00
6:15 PM,46.4,41.0,81,30.19,10.0,Calm,Calm,-,N/A,,Clear,0,2013-03-28 23:15:00
6:35 PM,44.6,41.0,87,30.19,9.0,ESE,3.5,-,N/A,,Mostly Cloudy,110,2013-03-28 23:35:00
6:55 PM,44.6,39.2,81,30.19,10.0,ESE,4.6,-,N/A,,Mostly Cloudy,110,2013-03-28 23:55:00
7:15 PM,42.8,37.4,81,30.19,10.0,ESE,4.6,-,N/A,,Overcast,110,2013-03-29 00:15:00
7:35 PM,42.8,37.4,81,30.20,10.0,ESE,5.8,-,N/A,,Overcast,120,2013-03-29 00:35:00
7:55 PM,42.8,37.4,81,30.20,10.0,ESE,5.8,-,N/A,,Overcast,110,2013-03-29 00:55:00
8:15 PM,41.0,37.4,87,30.20,10.0,ESE,4.6,-,N/A,,Overcast,120,2013-03-29 01:15:00
8:35 PM,41.0,35.6,81,30.20,-9999.0,ESE,4.6,-,N/A,,Overcast,110,2013-03-29 01:35:00
8:55 PM,41.0,35.6,81,30.21,10.0,ESE,6.9,-,N/A,,Overcast,110,2013-03-29 01:55:00
9:15 PM,39.2,35.6,87,30.21,10.0,ESE,5.8,-,N/A,,Overcast,110,2013-03-29 02:15:00
9:35 PM,37.4,35.6,93,30.21,10.0,ESE,5.8,-,N/A,,Mostly Cloudy,110,2013-03-29 02:35:00
9:55 PM,39.2,35.6,87,30.21,10.0,ESE,8.1,-,N/A,,Overcast,120,2013-03-29 02:55:00
10:15 PM,39.2,35.6,87,30.21,10.0,ESE,8.1,-,N/A,,Scattered Clouds,120,2013-03-29 03:15:00
10:35 PM,39.2,35.6,87,30.21,10.0,SE,10.4,-,N/A,,Partly Cloudy,130,2013-03-29 03:35:00
10:55 PM,37.4,35.6,93,30.21,10.0,SE,10.4,-,N/A,,Clear,130,2013-03-29 03:55:00
11:15 PM,37.4,35.6,93,30.21,10.0,SE,9.2,-,N/A,,Clear,130,2013-03-29 04:15:00
11:35 PM,37.4,33.8,87,30.22,10.0,SE,9.2,-,N/A,,Clear,130,2013-03-29 04:35:00
11:55 PM,37.4,33.8,87,30.22,10.0,SE,9.2,-,N/A,,Partly Cloudy,140,2013-03-29 04:55:00